This demonstration page uses our WeatherBlox Daily Observations layout. Learn more.

Left ArrowRight Arrow

Hourly Observations for April 16, 2019

Temp ( °F °C ) Dew Point ( °F °C ) Humidity (%) Winds ( mph kmh ) Pressure ( in mb ) Visibility ( mi km ) Precip ( " mm )
12:53 am 00:53 Clear 66 18.9 46 7.8 49 49 SE 14 22 29.73 1007 10 16 0.00 0.00
1:53 am 01:53 Clear 64 17.8 47 8.3 54 54 SSE 10 17 29.72 1007 10 16 0.00 0.00
2:53 am 02:53 Clear 62 16.7 48 8.9 60 60 SE 10 17 29.71 1006 10 16 0.00 0.00
3:53 am 03:53 Clear 62 16.7 48 8.9 60 60 SE 13 20 29.68 1005 10 16 0.00 0.00
4:53 am 04:53 Clear 62 16.7 49 9.4 62 62 SE 16 26 29.67 1005 10 16 0.00 0.00
5:53 am 05:53 Clear 61 16.1 51 10.6 70 70 SE 14 22 29.69 1005 10 16 0.00 0.00
6:53 am 06:53 Clear 60 15.6 52 11.1 75 75 SE 15 24 29.70 1006 10 16 0.00 0.00
7:53 am 07:53 Sunny 60 15.6 54 12.2 80 80 SSE 13 20 29.72 1007 10 16 0.00 0.00
8:53 am 08:53 Sunny 60 15.6 54 12.2 80 80 SSE 10 17 29.75 1007 10 16 0.00 0.00
9:53 am 09:53 Sunny 62 16.7 54 12.2 75 75 SE 12 19 29.76 1008 10 16 0.00 0.00
10:53 am 10:53 Sunny 66 18.9 52 11.1 61 61 S 9 15 29.78 1008 10 16 0.00 0.00
11:53 am 11:53 Sunny 71 21.7 42 5.6 35 35 SW 6 9 29.78 1008 10 16 0.00 0.00
12:53 pm 12:53 Sunny 75 23.9 41 5 29 29 Calm 29.75 1008 10 16 0.00 0.00
1:53 pm 13:53 Sunny 80 26.7 41 5 25 25 VRB 3 6 29.72 1007 10 16 0.00 0.00
2:53 pm 14:53 Sunny 80 26.7 41 5 25 25 SSE 8 13 29.71 1006 10 16 0.00 0.00
3:24 pm 15:24 Sunny 83 28.3 26 -3.3 12 12 W 18 30 29.63 1003 10 16 0.00 0.00
3:53 pm 15:53 Sunny 84 28.9 24 -4.4 11 11 WSW 22 35 29.68 1005 10 16 0.00 0.00
4:53 pm 16:53 Sunny 86 30 25 -3.9 11 11 WSW 17 28 29.65 1004 10 16 0.00 0.00
5:53 pm 17:53 Sunny 86 30 27 -2.8 12 12 SSW 10 17 29.64 1004 10 16 0.00 0.00
6:53 pm 18:53 Sunny 86 30 25 -3.9 11 11 SSW 16 26 29.64 1004 10 16 0.00 0.00
7:53 pm 19:53 Sunny 81 27.2 25 -3.9 13 13 SW 8 13 29.66 1004 10 16 0.00 0.00
8:53 pm 20:53 Clear 71 21.7 42 5.6 35 35 SSE 15 24 29.68 1005 10 16 0.00 0.00
9:53 pm 21:53 Clear 69 20.6 55 12.8 61 61 SE 17 28 29.72 1006 10 16 0.00 0.00
10:53 pm 22:53 Clear 66 18.9 55 12.8 68 68 SE 14 22 29.72 1006 10 16 0.00 0.00
11:53 pm 23:53 Clear 64 17.8 56 13.3 75 75 SE 15 24 29.70 1006 10 16 0.00 0.00

Powered by AerisWeather